www.pogodaiklimat.ru

Погода и климат >> Архив погоды >> Финляндия >> Неллим


ПОГОДА в Неллиме

  • Прогноз погоды в Неллиме
  • Монитор погоды в Неллиме

АРХИВ ПОГОДЫ в Неллиме

Время (UTC), дата Ветер
(напр.,м/с)
 
Видим.   Явления Облачность Т
(С)
Тd
(С)
f
(%)
Тe
(С)
Тes
(С)
Комфортность P
(гПа)
Po
(гПа)
Тmin
(С)
Tmax
(С)
R
(мм)
R24
(мм)
S
(см)
18 15.08 СВ 2-3
{3}
13 км слаб. дождь 10/10 300 м
[]
+11.7 +10.3 91 +11 +11 1004.7 990.0 +9.2 +12.5
21 15.08 СВ 2-2
{2}
13 км 10/0 300 м
[]
+10.8 +10.0 95 +9 +9 1005.2 990.5
00 16.08 В 2-2
{2}
4100 м дымка 10/0 300 м
[]
+10.2 +9.8 97 +9 +9 1006.0 991.3
03 16.08 В 2-3
{3}
7000 м в посл. час дождь 10/0 100 м
[]
+9.9 +9.5 97 +8 +8 1007.2 992.4 0.1
06 16.08 В 2-2
{3}
13 км 10/10 100 м
[]
+10.8 +10.3 97 +9 +9 1008.0 993.2 +9.7 +11.7 0.7
09 16.08 Ю 1-3
{3}
30 км 8/0 300 м
[]
+15.2 +10.9 75 +16 +20 1008.1 993.6
12 16.08 ЮЗ 3-4
{4}
45 км 10/10 600 м
[]
+14.4 +10.0 75 +14 +14 1008.8 994.2
15 16.08 ЮВ 3-4
{5}
40 км 9/0 1000 м
[]
+15.7 +10.0 69 +15 +16 1008.2 993.7
18 16.08 ЮВ 2-3
{5}
29 км 1/1 1000 м
[]
+12.6 +9.6 82 +12 +12 1008.6 993.9 +10.8 +15.9
21 16.08 Ю 3-6
{6}
50 км 10/0 600 м
[]
+12.5 +8.8 78 +11 +11 1008.9 994.2
00 17.08 Ю 2-5
{6}
50 км 8/5 1000 м
[]
+10.3 +8.5 89 +9 +9 1008.3 993.5
03 17.08 Ю 3-6
{8}
40 км слаб. ливневой дождь 10/0 1500 м
[]
+12.1 +10.0 87 +10 +11 1007.1 992.4
06 17.08 Ю 6-10
{10}
45 км 9/1 1500 м
[]
+13.0 +9.9 81 +11 +11 1007.0 992.4 +10.1 +13.3
09 17.08 ЮЗ 3-7
{7}
29 км слаб. ливневой дождь 9/8 300 м
[]
+13.5 +11.9 90 +12 +13 1008.2 993.5 0.3
12 17.08 Ю 3-6
{8}
50 км 9/5 300 м
[]
+15.6 +12.0 79 +15 +16 1008.6 994.1
15 17.08 Ю 4-6
{8}
45 км 9/9 600 м
[]
+17.0 +12.3 74 +17 +17 1008.3 993.9
18 17.08 Ю 3-6
{6}
50 км 9/1 1500 м
[]
+15.5 +12.7 83 +15 +15 1008.6 994.1 +12.9 +17.2 0.3
21 17.08 Ю 2-4
{5}
45 км 3/0
[]
+14.0 +12.3 89 +13 +13 1008.5 993.9
00 18.08 Ю 4-6
{7}
45 км 9/0
[]
+14.8 +12.8 88 +14 +14 1008.4 993.8
03 18.08 Ю 5-9
{9}
4700 м ливневой дождь 9/9 300 м
[]
+14.7 +13.5 93 +13 +13 1008.0 993.4 0.4
06 18.08 Ю 5-9
{10}
45 км 9/9 600 м
[]
+16.7 +12.4 76 +16 +16 1007.7 993.3 +13.0 +16.7 0.6
09 18.08 Ю 6-12
{14}
50 км 9/0 1000 м
[]
+17.4 +11.2 67 +17 +18 1008.0 993.5
12 18.08 Ю 5-11
{15}
50 км 9/0 1000 м
[]
+19.7 +11.2 58 +21 +23 комфорт 1008.1 993.8
15 18.08 Ю 6-13
{13}
50 км 9/0 2000 м
[]
+19.5 +11.5 60 +20 +21 1008.3 994.0
18 18.08 Ю 4-7
{9}
50 км 9/9 1500 м
[]
+17.6 +11.6 68 +17 +17 1009.2 994.8 +16.5 +21.3
21 18.08 Ю 3-7
{8}
50 км 9/0 1500 м
[]
+16.4 +12.1 76 +16 +16 1009.5 995.0
00 19.08 Ю 4-7
{7}
50 км 1/0
[]
+15.1 +11.8 81 +14 +14 1009.4 994.8
03 19.08 ЮВ 3-5
{7}
50 км 1/0
[]
+14.1 +11.7 85 +13 +13 1008.8 994.2
06 19.08 Ю 2-4
{7}
50 км 10/10
[]
+15.6 +9.5 67 +16 +16 1008.3 993.8 +13.9 +17.6
09 19.08 ЮВ 6-11
{16}
40 км 3/1 1500 м
[]
+20.5 +8.9 47 +22 +24 комфорт 1006.3 992.1
12 19.08 ЮВ 6-12
{12}
45 км 1/1 1500 м
[]
+20.2 +9.0 48 +21 +23 комфорт 1004.6 990.4
15 19.08 Ю 6-10
{11}
8000 м ливневой дождь 9/1 1500 м
[]
+16.2 +11.2 72 +15 +15 1003.9 989.4 0.2
18 19.08 ЮВ 5-10
{11}
10 км слаб. ливневой дождь 9/9 600 м
[]
+14.6 +12.9 90 +13 +13 1002.3 987.8 +14.6 +20.9 0.6
21 19.08 ЮВ 5-11
{11}
21 км в посл. час дождь 9/0 300 м
[]
+15.2 +13.2 88 +14 +14 1001.5 987.1
00 20.08 Ю 5-9
{12}
50 км 9/0 600 м
[]
+14.7 +10.9 78 +13 +13 1001.8 987.3
03 20.08 Ю 4-9
{11}
50 км 5/0 600 м
[]
+14.1 +10.9 81 +13 +13 1002.2 987.7
06 20.08 Ю 5-9
{13}
50 км 4/4 600 м
[]
+15.8 +11.2 74 +15 +16 1003.4 989.0 +14.0 +15.9 0.1
09 20.08 ЮЗ 5-10
{10}
45 км 9/0 600 м
[]
+16.8 +11.2 70 +16 +18 1004.9 990.5
12 20.08 ЮЗ 5 45 км 5/4 1000 м
[]
+17.8 +10.9 64 +17 +19 1005.9 991.5 0.5
15 20.08 50 км 9/9
[]
+15.2 +10.7 74 1007.5 993.0
18 20.08 Ю 4-6
{7}
50 км 8/8 2000 м
[]
+13.1 +10.9 86 +11 +11 1009.2 994.5 +12.9 +19.5 1
21 20.08 Ю 1-2
{4}
40 км 9/9 2000 м
[]
+11.2 +10.5 95 +11 +11 1010.5 995.7
00 21.08 Ю 2-4
{4}
23 км 9/0 2000 м
[]
+10.0 +9.7 98 +8 +8 1011.2 996.3
03 21.08 ЮЗ 3-5
{5}
45 км ясно +11.6 +10.7 94 +10 +10 1012.0 997.3
06 21.08 ЮЗ 2-4
{5}
45 км 9/9 300 м
[]
+14.2 +11.9 86 +14 +14 1012.5 997.8 +10.0 +14.2
09 21.08 ЮЗ 4-6
{6}
45 км 9/0 600 м
[]
+16.1 +11.6 75 +15 +18 1012.9 998.3
12 21.08 ЮЗ 2-5
{7}
50 км ясно +17.6 +11.0 65 +18 +23 1012.8 998.3
15 21.08 Ю 1-2
{4}
50 км ясно +15.1 +13.0 87 +16 +18 1013.0 998.3
18 21.08 ЮВ 2-3
{5}
50 км ясно +12.2 +10.9 92 +11 +11 1013.2 998.4 +12.1 +18.7 2
21 21.08 Ю 2-3
{5}
13 км слаб. дождь 8/1 1000 м
[]
+12.5 +11.9 96 +11 +11 1012.7 998.0
00 22.08 ЮЗ 3-5
{7}
50 км ясно +12.1 +10.2 88 +10 +10 1012.8 998.0
03 22.08 З 1-1
{4}
5000 м ясно +8.2 +8.1 99 +7 +7 1013.0 998.0
06 22.08 З 3-4
{4}
45 км ясно +12.7 +11.2 91 +11 +13 1012.9 998.2 +7.6 +13.2 0.1
09 22.08 З 2-4
{7}
50 км 9/9 300 м
[]
+14.2 +10.9 81 +14 +14 1013.5 998.9
12 22.08 СЗ 4-5
{5}
50 км ясно +15.5 +11.8 79 +15 +18 1013.2 998.6
15 22.08 С 4-6
{8}
50 км в посл. час дождь 6/6 600 м
[]
+14.5 +10.7 78 +13 +14 1014.2 999.5

 

Местоположение метеостанции Неллим (Финляндия): широта 68.85 долгота 28.30 высота над уровнем моря 121 м.

В архиве по умолчанию представлена погода в Неллиме за последнюю неделю. Архивные данные за месяц целиком и за предыдущие месяцы, начиная с января 2011 года, Вы можете получить, выбрав интересующий диапазон дат из раскрывающегося списка и нажав кнопку "Ввод!".


*Определитесь, кто Вы:
робот инопланетянин человек

Внимание! Время в таблицах - всемирное. Для получения местного времени необходимо прибавить поправку, которая равна 1 ч.

Смотрите также архив погоды в соседних городах и на ближайших метеорологических станциях:

Погода в Янискоски (Мурманская область, Россия) (23 км)
Погода на Острове Сеиталасса (Финляндия) (31 км)
Погода в Инари Раджайосеппи (Финляндия) (41 км)
Погода в Верховье Лотты (Мурманская область, Россия) (44 км)
Погода в Аэропорту Ивало (Финляндия) (45 км)
Погода в Нируде (Норвегия) (50 км)
Погода в Кааманене (Финляндия) (52 км)
Погода в Инари Вайла (Финляндия) (53 км)
Погода в Саариселькя (Финляндия) (58 км)
Погода в Саариселькя (Финляндия) (60 км)

Пояснения к столбцам:

Ветер - указаны скорость ветра в м/с - средняя за 10 мин, порывы в срок и между сроками (в фигурных скобках) и направление, откуда дует ветер: С - северный, СВ - северо-восточный, В - восточный, ЮВ - юго-восточный, Ю - южный, ЮЗ - юго-западный, З - западный, СЗ - северо-западный.
Видимость - горизонтальная дальность видимости в метрах или километрах. При видимости от 1 до 10 км при отсутствии осадков обычно наблюдается дымка, при ухудшении видимости до 1 км и менее - туман. В сухую погоду видимость может ухудшаться дымом, пылью или мглою.
Явления - указаны атмосферные явления, наблюдавшиеся в срок или в последний час перед сроком; фигурными скобками обозначены явления, наблюдавшиеся между сроками (за 1-3 часа до срока); квадратными скобками обозначены град или гололедные отложения с указанием их диаметра в мм.
Облачность - указаны через наклонную черту общая и нижняя облачность в баллах и высота нижней границы облаков в метрах; квадратными скобками обозначены формы облаков: Ci - перистые, Cs - перисто-слоистые, Cc - перисто-кучевые, Ac - высококучевые, As - высокослоистые, Sc - слоисто-кучевые, Ns - слоисто-дождевые, Cu - кучевые, Cb - кучево-дождевые. Подробнее классификацию облаков см. в Атласе облаков (PDF).
T - Температура воздуха - температура, измеренная на высоте 2 м над землей.
Td - Температура точки росы - температура, при понижении до которой содержащийся в воздухе водяной пар достигнет насыщения.
f - Относительная влажность воздуха - влажноcть воздуха, измеренная на высоте 2 м над землей.
Te - Эффективная температура - температура, которую ощущает одетый по сезону человек в тени. Характеристика душности погоды. При расчете учитывается влияние влажности воздуха и скорости ветра на теплоощущения человека.
Tes - Эффективная температура на солнце - температура, которую ощущает человек, с поправкой на солнечный нагрев. Характеристика знойности погоды. Зависит от высоты солнца над горизонтом, облачности и скорости ветра. Ночью, в пасмурную погоду, а также при ветре 12 м/с и более поправка равна нулю.
P - Атмосферное давление - приведенное к уровню моря атмосферное давление.
Po - Атмосферное давление - измеренное на уровне метеостанции атмосферное давление.
Tmin - Минимальная температура - минимум температуры воздуха на высоте 2 м над землей.
Tmax - Максимальная температура - максимум температуры воздуха на высоте 2 м над землей.
R - Количество осадков - Количество выпавших осадков за период времени, мм. При наведении курсора мыши на число - период времени, за который выпало указанное количество осадков.
R24 - Количество осадков - Количество выпавших осадков за 24 часа, мм.
S - Снежный покров - Высота снежного покрова, см. При наведении курсора мыши на число - состояние снежного покрова и степень покрытия местности в баллах.